Weather History for KRSN - May, 2013

Change the Weather History Date:

Friday, May 17, 2013

  Actual Average Record
Temperature  
Mean Temperature 76 °F -  
Max Temperature 85 °F 83 °F - (-1)
Min Temperature 66 °F 60 °F - (-1)
Cooling Degree Days 10    
Growing Degree Days 26 (Base 50)    
Moisture  
Dew Point 69 °F    
Average Humidity 82    
Maximum Humidity 100    
Minimum Humidity 60    
Precipitation  
Precipitation 0.01 in - - ()
Sea Level Pressure  
Sea Level Pressure 29.95 in    
Wind  
Wind Speed 7 mph (SSW)    
Max Wind Speed 12 mph    
Max Gust Speed 18 mph    
Visibility 10 miles    
Events Rain , Thunderstorm    
Averages and records for this station are not official NWS values.
T = Trace of Precipitation, MM = Missing Value Source: NWS Daily Summary

Daily Weather History Graph

Daily Weather History Graph

Search for Another Location

Airport or City:

Trip Planner

Search our weather history database for the weather conditions in past years. The results will help you decide how hot, cold, wet, or windy it might be!

Date:

Astronomy

May. 17, 2013 Rise Set
Actual Time 6:10 AM CDT 8:03 PM CDT
Civil Twilight 5:43 AM CDT 8:30 PM CDT
Nautical Twilight 5:10 AM CDT 9:03 PM CDT
Astronomical Twilight 4:35 AM CDT 9:38 PM CDT
Moon 12:33 PM CDT (5/17) 1:04 AM CDT (5/17)
Length of Visible Light 14h 47m
Length of Day
13h 52m
Waxing Crescent, 45% of the Moon is Illuminated
May 17
Waxing Crescent
May 17
First Quarter
May 24
Full
May 31
Last Quarter
Jun 8
New

Hourly Weather History & Observations

Time (CDT) Temp. Heat Index Dew Point Humidity Pressure Visibility Wind Dir Wind Speed Gust Speed Precip Events Conditions
12:15 AM 71.2 °F - 63.9 °F 77% 29.91 in 10.0 mi SSW 9.2 mph - N/A   Clear
12:35 AM 71.2 °F - 63.7 °F 77% 29.91 in 10.0 mi SSW 11.5 mph 16.1 mph N/A Thunderstorm Mostly Cloudy
12:55 AM 70.9 °F - 63.1 °F 76% 29.90 in 10.0 mi SSW 11.5 mph - N/A Thunderstorm Scattered Clouds
1:15 AM 70.5 °F - 63.5 °F 78% 29.91 in 10.0 mi SSW 8.1 mph - N/A   Clear
1:35 AM 70.3 °F - 63.5 °F 79% 29.91 in 10.0 mi SSW 9.2 mph - N/A   Scattered Clouds
1:55 AM 69.8 °F - 63.9 °F 81% 29.90 in 10.0 mi SSW 8.1 mph - N/A   Scattered Clouds
2:15 AM 69.4 °F - 64.2 °F 83% 29.90 in 10.0 mi SSW 8.1 mph - N/A   Clear
2:35 AM 69.3 °F - 64.4 °F 84% 29.91 in 10.0 mi SSW 8.1 mph - N/A   Clear
2:55 AM 68.9 °F - 64.9 °F 87% 29.91 in 10.0 mi SSW 5.8 mph - N/A   Clear
3:15 AM 68.0 °F - 65.7 °F 92% 29.90 in 10.0 mi SSW 5.8 mph - N/A   Clear
3:35 AM 67.8 °F - 66.4 °F 95% 29.90 in 10.0 mi SSW 5.8 mph - N/A   Clear
3:55 AM 67.3 °F - 67.3 °F 100% 29.91 in 10.0 mi South 5.8 mph - N/A   Clear
4:15 AM 67.1 °F - 67.1 °F 100% 29.91 in 10.0 mi SSW 5.8 mph - N/A   Clear
4:35 AM 66.7 °F - 66.7 °F 100% 29.91 in 10.0 mi South 4.6 mph - N/A   Scattered Clouds
4:55 AM 67.3 °F - 67.3 °F 100% 29.92 in 10.0 mi SSW 5.8 mph - N/A   Mostly Cloudy
5:15 AM 68.0 °F - 68.0 °F 100% 29.92 in 10.0 mi SSW 4.6 mph - N/A   Overcast
5:35 AM 68.2 °F - 68.2 °F 100% 29.92 in 10.0 mi SSW 4.6 mph - N/A   Overcast
5:55 AM 68.2 °F - 68.2 °F 100% 29.93 in 10.0 mi Calm Calm - N/A   Overcast
6:15 AM 68.4 °F - 68.4 °F 100% 29.94 in 10.0 mi Calm Calm - N/A   Overcast
6:35 AM 68.2 °F - 68.2 °F 100% 29.96 in 10.0 mi Calm Calm - N/A   Overcast
6:55 AM 68.2 °F - 68.2 °F 100% 29.97 in 7.0 mi Calm Calm - N/A   Overcast
7:15 AM 68.9 °F - 68.9 °F 100% 29.98 in 10.0 mi Calm Calm - N/A   Overcast
7:35 AM 69.1 °F - 69.1 °F 100% 29.98 in 10.0 mi Calm Calm - N/A   Overcast
7:55 AM 69.8 °F - 69.8 °F 100% 29.98 in 10.0 mi South 6.9 mph - N/A   Overcast
8:15 AM 70.7 °F - 70.7 °F 100% 29.98 in 10.0 mi South 8.1 mph - N/A   Overcast
8:35 AM 71.6 °F - 71.2 °F 99% 29.99 in 10.0 mi SSW 5.8 mph - N/A   Overcast
8:55 AM 71.8 °F - 70.7 °F 96% 29.99 in 10.0 mi SW 4.6 mph - N/A   Overcast
9:15 AM 72.5 °F - 70.7 °F 94% 29.99 in 10.0 mi South 8.1 mph - N/A   Overcast
9:35 AM 74.3 °F - 69.6 °F 85% 29.99 in 10.0 mi SSW 6.9 mph - N/A   Overcast
9:55 AM 74.7 °F - 68.5 °F 81% 29.99 in 10.0 mi SW 10.4 mph 18.4 mph N/A   Overcast
10:15 AM 76.1 °F - 68.7 °F 78% 29.99 in 10.0 mi SSW 8.1 mph - N/A   Mostly Cloudy
10:35 AM 77.5 °F - 68.5 °F 74% 29.99 in 10.0 mi SSW 10.4 mph 18.4 mph N/A   Mostly Cloudy
10:55 AM 77.0 °F - 68.2 °F 74% 29.99 in 10.0 mi SW 5.8 mph - N/A   Overcast
11:15 AM 77.4 °F - 67.8 °F 72% 30.00 in 10.0 mi SW 11.5 mph 16.1 mph N/A   Overcast
11:35 AM 77.2 °F - 68.0 °F 73% 30.00 in 10.0 mi SW 6.9 mph - N/A   Overcast
11:55 AM 77.9 °F - 68.4 °F 72% 30.00 in 10.0 mi SSW 8.1 mph - N/A   Overcast
12:15 PM 78.4 °F - 68.2 °F 71% 29.99 in 10.0 mi SSW 10.4 mph - N/A   Overcast
12:35 PM 80.1 °F 82.8 °F 68.5 °F 68% 29.99 in 10.0 mi South 8.1 mph - N/A   Overcast
12:55 PM 79.9 °F - 68.4 °F 68% 29.99 in 10.0 mi SW 6.9 mph - N/A   Mostly Cloudy
1:15 PM 80.2 °F 82.6 °F 67.3 °F 64% 29.98 in 10.0 mi SW 4.6 mph - N/A   Overcast
1:35 PM 80.6 °F 83.2 °F 68.0 °F 65% 29.98 in 10.0 mi SSW 5.8 mph - N/A   Overcast
1:55 PM 81.0 °F 83.9 °F 68.7 °F 66% 29.97 in 10.0 mi SW 6.9 mph - N/A   Overcast
2:15 PM 82.0 °F 85.1 °F 68.2 °F 63% 29.97 in 10.0 mi SSW 4.6 mph - N/A   Overcast
2:35 PM 84.0 °F 87.8 °F 69.4 °F 61% 29.96 in 10.0 mi South 5.8 mph - N/A   Mostly Cloudy
2:55 PM 82.6 °F 85.9 °F 68.7 °F 63% 29.96 in 10.0 mi SSW 6.9 mph - N/A   Mostly Cloudy
3:15 PM 82.2 °F 84.9 °F 67.6 °F 61% 29.95 in 10.0 mi SSW 6.9 mph - N/A   Mostly Cloudy
3:35 PM 81.7 °F 85.8 °F 70.9 °F 70% 29.95 in 7.0 mi Calm Calm - 0.01 in Rain Light Rain
4:15 PM 83.5 °F 87.4 °F 69.8 °F 63% 29.93 in 10.0 mi South 5.8 mph - N/A   Overcast
4:35 PM 84.4 °F 88.2 °F 69.1 °F 60% 29.93 in 10.0 mi SW 6.9 mph - N/A   Mostly Cloudy
4:55 PM 84.6 °F 88.5 °F 69.1 °F 60% 29.93 in 10.0 mi South 4.6 mph - N/A   Mostly Cloudy
5:15 PM 84.2 °F 88.4 °F 70.0 °F 62% 29.93 in 10.0 mi South 5.8 mph - N/A   Mostly Cloudy
5:35 PM 84.2 °F 88.7 °F 70.2 °F 63% 29.93 in 10.0 mi SSW 3.5 mph - N/A   Mostly Cloudy
5:55 PM 85.3 °F 89.8 °F 69.8 °F 60% 29.92 in 10.0 mi South 6.9 mph - N/A   Mostly Cloudy
6:15 PM 84.4 °F 88.7 °F 70.2 °F 62% 29.92 in 10.0 mi SSE 5.8 mph - N/A   Mostly Cloudy
6:35 PM 84.2 °F 88.7 °F 70.2 °F 63% 29.92 in 10.0 mi South 5.8 mph - N/A   Scattered Clouds
6:55 PM 83.5 °F 88.8 °F 71.8 °F 68% 29.92 in 10.0 mi Calm Calm - N/A   Scattered Clouds
7:35 PM 80.4 °F 85.1 °F 73.6 °F 80% 29.92 in 10.0 mi Calm Calm - N/A   Mostly Cloudy
7:55 PM 78.3 °F - 76.8 °F 95% 29.93 in 10.0 mi Calm Calm - N/A   Mostly Cloudy
8:15 PM 77.0 °F - 77.0 °F 100% 29.93 in 7.0 mi Calm Calm - N/A   Scattered Clouds
8:35 PM 77.2 °F - 76.5 °F 98% 29.93 in 10.0 mi Calm Calm - N/A   Scattered Clouds
8:55 PM 77.4 °F - 74.7 °F 91% 29.94 in 10.0 mi South 5.8 mph - N/A   Scattered Clouds
9:15 PM 77.5 °F - 73.0 °F 86% 29.94 in 10.0 mi SSW 4.6 mph - N/A   Scattered Clouds
9:35 PM 77.7 °F - 72.7 °F 84% 29.95 in 10.0 mi South 6.9 mph - N/A   Mostly Cloudy
9:55 PM 77.5 °F - 72.1 °F 83% 29.96 in 10.0 mi South 9.2 mph - N/A   Scattered Clouds
10:15 PM 77.7 °F - 71.6 °F 81% 29.97 in 10.0 mi SSW 9.2 mph - N/A   Clear
10:35 PM 77.0 °F - 71.6 °F 83% 29.98 in 10.0 mi SSW 10.4 mph - N/A   Clear
10:55 PM 76.3 °F - 71.6 °F 85% 29.98 in 10.0 mi South 10.4 mph - N/A   Clear
11:15 PM 76.1 °F - 71.8 °F 86% 29.98 in 10.0 mi South 6.9 mph - N/A   Clear
11:35 PM 75.6 °F - 71.6 °F 87% 29.98 in 10.0 mi SSW 10.4 mph - N/A   Clear
11:55 PM 75.2 °F - 71.2 °F 87% 29.97 in 10.0 mi SSW 9.2 mph - N/A   Clear